Tracking 17558 objects as of 14-February-2016
HD Live streaming from Space Station
objects crossing your sky now

COSMOS 2251 DEB

Track COSMOS 2251 DEB now!
10-day predictions


NORAD ID: 35442
Int'l Code: 1993-036AKL
Perigee: 743.7 km
Apogee: 770.1 km
Inclination: 74.0 °
Period: 99.8 minutes
Semi major axis: 7127 km
RCS: 0.0032 m2 (small)
Launch date: June 16, 1993
Source: Commonwealth of Independent States (former USSR) (CIS)
Launch site: PLESETSK MISSILE AND SPACE COMPLEX (PKMTR)

Note: This is SATELLITE DEBRIS
Your satellite tracking list
Your tracking list is empty





NASA's NSSDC Master Catalog

Two Line Element Set (TLE):
1 35442U 93036AKL 16044.93875672 +.00002604 +00000-0 +78918-3 0  9999
2 35442 074.0448 003.3756 0018504 222.4799 195.2864 14.4265778135372
Source of the keplerian elements: AFSPC

N2YO: 399